Regional Weather Roundup
Issued by NWS Newport/Morehead, NC

Current Version | Previous Version | Graphics & Text | Print | Product List | Glossary Off
Versions: 1 2 3 4 5 6 7 8 9 10 11 12 13 14 15 16 17 18 19 20 21 22 23 24 25 26 27 28 29 30 31 32 33 34 35 36 37 38 39 40 41 42 43 44 45 46 47 48 49 50

000
ASUS42 KMHX 231422
RWRMHX
WEATHER ROUNDUP FOR EASTERN NORTH CAROLINA
NATIONAL WEATHER SERVICE NEWPORT/MOREHEAD CITY NC
1000 AM EDT WED APR 23 2014

NOTE: "FAIR" INDICATES FEW OR NO CLOUDS BELOW 12,000 FEET
WITH NO SIGNIFICANT WEATHER AND/OR OBSTRUCTIONS TO VISIBILITY

NCZ015>017-031-032-045>047-102-103-231500-
NORTH COAST

CITY           SKY/WX    TMP DP  RH WIND       PRES   REMARKS
EDENTON        SUNNY     63  44  50 N9        29.80R
ELIZABETH CITY SUNNY     62  38  40 N16       29.78R
KITTY HAWK     SUNNY     57  42  57 N6G20     29.76R
MANTEO         PTSUNNY   59  41  51 N14G23    29.78R

$$

NCZ045>047-081-094-103-104-231500-
CENTRAL COAST

CITY           SKY/WX    TMP DP  RH WIND       PRES   REMARKS
FRISCO         SUNNY     59  32  36 N12G24    29.77R
SWANQUARTER      N/A     66 N/A N/A NE6G12    29.74S

$$

NCZ095-097-098-100-101-231500-
SOUTHERN COAST

CITY           SKY/WX    TMP DP  RH WIND       PRES   REMARKS
BEAUFORT       SUNNY     69  56  62 N9        29.78R
CEDAR ISLAND     N/A     64 N/A N/A NW8       29.79R
JACKSONVILLE   SUNNY     69  46  43 N18G26    29.79R
NEWPORT          N/A     68  55  64 N10G17      N/A
PINEY ISLAND   MOSUNNY   66  57  72 N12       29.78R
WILMINGTON     SUNNY     72  49  44 NW14      29.80R


$$

NCZ011>013-027>030-043-044-078>080-089-090>093-098-231500-
COASTAL PLAIN

CITY           SKY/WX    TMP DP  RH WIND       PRES   REMARKS
AHOSKIE        SUNNY     60  42  52 N10       29.81R
CLINTON        SUNNY     67  47  48 NW8       29.82S
ELIZABETHTOWN  SUNNY     68  46  45 NW7       29.83R
GOLDSBORO      SUNNY     67  44  43 NW14      29.80R
GREENVILLE     MOSUNNY   63  52  67 N7        29.83R
HAVELOCK       SUNNY     67  54  63 N14       29.79R
KENANSVILLE    SUNNY     66  45  46 N10       29.82R
KINSTON        SUNNY     68  39  34 NW15      29.81R
NEW BERN       SUNNY     68  55  63 NW10      29.80R
RICHLANDS      SUNNY     70  66  88 NW7       29.81R
ROANOKE RAPIDS NOT AVBL
ROCKY MOUNT    SUNNY     65  38  36 N10       29.82R
WASHINGTON     MOSUNNY   64  55  70 N8        29.80R
WHITEVILLE     SUNNY     69  51  53 NW3       29.83R

$$

AMZ130-135-150-152-154-156-158-170-250-252-270-ANZ085-086-088-633-658-670-231500-
MARINE OBSERVATIONS

STATION/POSITION TIME  TEMP    WIND        PRES    WAVE   SWELL
                       AIR SEA DIR/SP/G            HT/PER HT/PER
                 (UTC) (F)     (DEG/KT/KT) (MB)    (FT/S) (FT/S)
CHESAPEAKE LIGHT 1400   54     340/ 23/ 24 1008.5
BUOY 44014       1400   51 49  350/ 12/ 14 1007.1    4/ 9   3/ 9
DUCK             1400   53 49   20/ 17/ 19 1007.2
2E DUCK          1400      51                N/A     3/ 9
OREGON INLET     1400   56 54  350/ 12/ 18 1008.2
BUOY 44095       1400      51                N/A     4/ 9
HATTERAS CG      1400   58 58   10/ 17/ 20 1008.5
DIAMOND BUOY     1400   61 75  360/ 25/ 31 1007.0    5/ 8   2/ 8
CAPE LOOKOUT     1400   67     360/ 10/ 12 1008.2
BEAUFORT LAB     1400   66 61  350/  9/ 11 1007.8
30 SE NEW RIVER  1400   64 68  310/ 12/ 16 1008.8    3/ 7   2/ 7
5 SE WRIGHTSVILL 1400   64 60  350/  8/ 10 1009.2
FRYING PAN BUOY  1400   64 67  290/ 14/ 16 1009.2    3/ 6   2/ 8
BUOY 41001       NOT AVBL
BUOY 41002       NOT AVBL
BUOY 41004       1400   65 67  280/ 12/ 14 1010.5    3/ 8   2/ 8

$$



USA.gov is the U.S. government's official web portal to all federal, state and local government web resources and services.